Time,TemperatureF,DewpointF,PressureIn,WindDirection,WindDirectionDegrees,WindSpeedMPH,WindSpeedGustMPH,Humidity,HourlyPrecipIn,Conditions,Clouds,dailyrainin,SolarRadiationWatts/m^2,SoftwareType,DateUTC
2013-03-15 00:00:00,38.3,33.0,30.20,West,271,0.0,0.0,81,0.00,CLR,,0.00,0.0,WeatherDisplay:10.37,2013-03-15 04:00:00,
2013-03-15 00:05:00,38.4,33.4,30.20,West,271,0.0,0.0,82,0.00,CLR,,0.00,0.0,WeatherDisplay:10.37,2013-03-15 04:05:00,
2013-03-15 00:10:00,38.6,33.6,30.20,West,270,0.0,0.0,82,0.00,CLR,,0.00,0.0,WeatherDisplay:10.37,2013-03-15 04:10:00,
2013-03-15 00:15:00,38.7,33.7,30.20,West,271,0.0,0.0,82,0.00,CLR,,0.00,0.0,WeatherDisplay:10.37,2013-03-15 04:15:00,
2013-03-15 00:20:00,38.8,34.1,30.20,West,271,0.0,0.0,83,0.00,CLR,,0.00,0.0,WeatherDisplay:10.37,2013-03-15 04:20:00,
2013-03-15 00:25:00,38.8,34.1,30.20,West,271,0.0,0.0,83,0.00,CLR,,0.00,0.0,WeatherDisplay:10.37,2013-03-15 04:25:00,
2013-03-15 00:30:00,38.9,34.2,30.20,West,271,0.0,0.0,83,0.00,CLR,,0.00,0.0,WeatherDisplay:10.37,2013-03-15 04:30:00,
2013-03-15 00:35:00,38.9,34.2,30.20,West,271,0.0,0.0,83,0.00,CLR,,0.00,0.0,WeatherDisplay:10.37,2013-03-15 04:35:00,
2013-03-15 00:40:00,38.9,34.5,30.19,West,271,0.0,0.0,84,0.00,CLR,,0.00,0.0,WeatherDisplay:10.37,2013-03-15 04:40:00,
2013-03-15 00:45:00,38.9,34.5,30.19,West,270,0.0,0.0,84,0.00,CLR,,0.00,0.0,WeatherDisplay:10.37,2013-03-15 04:45:00,
2013-03-15 00:50:00,38.9,34.5,30.19,West,270,0.0,0.0,84,0.00,CLR,,0.00,0.0,WeatherDisplay:10.37,2013-03-15 04:50:00,
2013-03-15 00:55:00,38.8,34.4,30.19,West,271,0.0,0.0,84,0.00,CLR,,0.00,0.0,WeatherDisplay:10.37,2013-03-15 04:55:00,
2013-03-15 01:00:00,38.8,34.7,30.20,West,271,0.0,0.0,85,0.00,CLR,,0.00,0.0,WeatherDisplay:10.37,2013-03-15 05:00:00,
2013-03-15 01:05:00,38.7,34.6,30.20,West,271,0.0,0.0,85,0.00,CLR,,0.00,0.0,WeatherDisplay:10.37,2013-03-15 05:05:00,
2013-03-15 01:10:00,38.6,34.5,30.20,West,271,0.0,0.0,85,0.00,CLR,,0.00,0.0,WeatherDisplay:10.37,2013-03-15 05:10:00,
2013-03-15 01:15:00,38.5,34.4,30.20,West,271,0.0,0.0,85,0.00,CLR,,0.00,0.0,WeatherDisplay:10.37,2013-03-15 05:15:00,
2013-03-15 01:20:00,38.4,34.6,30.20,West,271,0.0,0.0,86,0.00,CLR,,0.00,0.0,WeatherDisplay:10.37,2013-03-15 05:20:00,
2013-03-15 01:25:00,38.3,34.8,30.20,West,271,0.0,0.0,87,0.00,CLR,,0.00,0.0,WeatherDisplay:10.37,2013-03-15 05:25:00,
2013-03-15 01:30:00,38.2,34.7,30.20,West,271,0.0,0.0,87,0.00,CLR,,0.00,0.0,WeatherDisplay:10.37,2013-03-15 05:30:00,
2013-03-15 01:35:00,38.2,35.0,30.20,West,271,0.0,0.0,88,0.00,CLR,,0.00,0.0,WeatherDisplay:10.37,2013-03-15 05:35:00,
2013-03-15 01:40:00,38.2,35.0,30.20,West,271,0.0,0.0,88,0.00,CLR,,0.00,0.0,WeatherDisplay:10.37,2013-03-15 05:40:00,
2013-03-15 01:45:00,38.2,35.2,30.19,West,271,0.0,0.0,89,0.00,CLR,,0.00,0.0,WeatherDisplay:10.37,2013-03-15 05:45:00,
2013-03-15 01:50:00,38.2,35.2,30.19,West,271,0.0,0.0,89,0.00,CLR,,0.00,0.0,WeatherDisplay:10.37,2013-03-15 05:50:00,
2013-03-15 01:55:00,38.2,35.2,30.19,West,271,0.0,0.0,89,0.00,CLR,,0.00,0.0,WeatherDisplay:10.37,2013-03-15 05:55:00,
2013-03-15 02:00:00,38.2,35.5,30.19,West,271,0.0,0.0,90,0.00,CLR,,0.00,0.0,WeatherDisplay:10.37,2013-03-15 06:00:00,
2013-03-15 02:05:00,38.2,35.5,30.18,West,271,0.0,0.0,90,0.00,CLR,,0.00,0.0,WeatherDisplay:10.37,2013-03-15 06:05:00,
2013-03-15 02:10:00,38.3,35.6,30.18,West,271,0.0,0.0,90,0.00,CLR,,0.00,0.0,WeatherDisplay:10.37,2013-03-15 06:10:00,
2013-03-15 02:15:00,38.3,35.6,30.18,West,270,0.0,0.0,90,0.00,CLR,,0.00,0.0,WeatherDisplay:10.37,2013-03-15 06:15:00,
2013-03-15 02:20:00,38.3,35.9,30.18,West,271,0.0,0.0,91,0.00,CLR,,0.00,0.0,WeatherDisplay:10.37,2013-03-15 06:20:00,
2013-03-15 02:25:00,38.4,36.0,30.18,West,271,0.0,0.0,91,0.00,CLR,,0.00,0.0,WeatherDisplay:10.37,2013-03-15 06:25:00,
2013-03-15 02:30:00,38.5,36.4,30.17,West,271,0.0,0.0,92,0.00,CLR,,0.00,0.0,WeatherDisplay:10.37,2013-03-15 06:30:00,
2013-03-15 02:35:00,38.6,36.5,30.17,West,271,0.0,0.0,92,0.00,CLR,,0.00,0.0,WeatherDisplay:10.37,2013-03-15 06:35:00,
2013-03-15 02:40:00,38.7,36.6,30.17,West,270,0.0,0.0,92,0.00,CLR,,0.00,0.0,WeatherDisplay:10.37,2013-03-15 06:40:00,
2013-03-15 02:45:00,38.8,36.7,30.17,West,271,0.0,0.0,92,0.00,CLR,,0.00,0.0,WeatherDisplay:10.37,2013-03-15 06:45:00,
2013-03-15 02:50:00,39.0,36.6,30.17,West,271,0.0,0.0,91,0.00,CLR,,0.00,0.0,WeatherDisplay:10.37,2013-03-15 06:50:00,
2013-03-15 02:55:00,39.1,36.7,30.17,West,271,0.0,0.0,91,0.00,CLR,,0.00,0.0,WeatherDisplay:10.37,2013-03-15 06:55:00,
2013-03-15 03:00:00,39.2,37.1,30.17,West,271,0.0,0.0,92,0.00,CLR,,0.00,0.0,WeatherDisplay:10.37,2013-03-15 07:00:00,
2013-03-15 03:05:00,39.3,36.9,30.18,West,271,0.0,0.0,91,0.00,FEW,,0.00,0.0,WeatherDisplay:10.37,2013-03-15 07:05:00,
2013-03-15 03:10:00,39.4,37.0,30.17,West,271,0.0,0.0,91,0.00,FEW,,0.00,0.0,WeatherDisplay:10.37,2013-03-15 07:10:00,
2013-03-15 03:15:00,39.4,37.0,30.17,West,271,0.0,0.0,91,0.00,FEW,,0.00,0.0,WeatherDisplay:10.37,2013-03-15 07:15:00,
2013-03-15 03:20:00,39.5,37.1,30.18,West,271,1.2,0.0,91,0.00,FEW,,0.00,0.0,WeatherDisplay:10.37,2013-03-15 07:20:00,
2013-03-15 03:25:00,39.6,37.2,30.18,West,270,0.0,0.0,91,0.00,FEW,,0.00,0.0,WeatherDisplay:10.37,2013-03-15 07:25:00,
2013-03-15 03:30:00,39.6,37.2,30.17,West,271,0.0,0.0,91,0.00,FEW,,0.00,0.0,WeatherDisplay:10.37,2013-03-15 07:30:00,
2013-03-15 03:35:00,39.6,37.2,30.16,West,271,1.2,1.2,91,0.00,FEW,,0.00,0.0,WeatherDisplay:10.37,2013-03-15 07:35:00,
2013-03-15 03:40:00,39.9,37.8,30.17,West,271,0.0,0.0,92,0.00,FEW,,0.00,0.0,WeatherDisplay:10.37,2013-03-15 07:40:00,
2013-03-15 03:45:00,40.1,38.0,30.17,West,271,0.0,0.0,92,0.00,FEW,,0.00,0.0,WeatherDisplay:10.37,2013-03-15 07:45:00,
2013-03-15 03:50:00,40.3,37.9,30.17,West,271,0.0,0.0,91,0.00,FEW,,0.00,0.0,WeatherDisplay:10.37,2013-03-15 07:50:00,
2013-03-15 03:55:00,40.4,38.0,30.17,West,271,0.0,0.0,91,0.00,FEW,,0.00,0.0,WeatherDisplay:10.37,2013-03-15 07:55:00,
2013-03-15 04:00:00,40.5,38.1,30.17,West,271,0.0,0.0,91,0.00,FEW,,0.00,0.0,WeatherDisplay:10.37,2013-03-15 08:00:00,
2013-03-15 04:05:00,40.5,37.8,30.16,West,271,0.0,0.0,90,0.00,SCT,,0.00,0.0,WeatherDisplay:10.37,2013-03-15 08:05:00,
2013-03-15 04:10:00,40.5,37.8,30.16,West,270,0.0,0.0,90,0.00,SCT,,0.00,0.0,WeatherDisplay:10.37,2013-03-15 08:10:00,
2013-03-15 04:15:00,40.5,37.8,30.16,West,271,0.0,0.0,90,0.00,SCT,,0.00,0.0,WeatherDisplay:10.37,2013-03-15 08:15:00,
2013-03-15 04:20:00,40.3,37.6,30.16,West,271,0.0,0.0,90,0.00,SCT,,0.00,0.0,WeatherDisplay:10.37,2013-03-15 08:20:00,
2013-03-15 04:25:00,40.2,37.5,30.16,West,271,0.0,0.0,90,0.00,SCT,,0.00,0.0,WeatherDisplay:10.37,2013-03-15 08:25:00,
2013-03-15 04:30:00,40.0,37.3,30.16,West,271,0.0,0.0,90,0.00,SCT,,0.00,0.0,WeatherDisplay:10.37,2013-03-15 08:30:00,
2013-03-15 04:35:00,39.8,37.1,30.15,West,270,0.0,0.0,90,0.00,SCT,,0.00,0.0,WeatherDisplay:10.37,2013-03-15 08:35:00,
2013-03-15 04:40:00,39.6,36.9,30.15,West,271,0.0,0.0,90,0.00,SCT,,0.00,0.0,WeatherDisplay:10.37,2013-03-15 08:40:00,
2013-03-15 04:45:00,39.4,36.7,30.15,West,271,0.0,0.0,90,0.00,SCT,,0.00,0.0,WeatherDisplay:10.37,2013-03-15 08:45:00,
2013-03-15 04:50:00,39.3,36.9,30.15,West,271,0.0,0.0,91,0.00,SCT,,0.00,0.0,WeatherDisplay:10.37,2013-03-15 08:50:00,
2013-03-15 04:55:00,39.1,36.7,30.15,West,271,0.0,0.0,91,0.00,SCT,,0.00,0.0,WeatherDisplay:10.37,2013-03-15 08:55:00,
2013-03-15 05:00:00,38.9,36.5,30.15,West,271,0.0,0.0,91,0.00,SCT,,0.00,0.0,WeatherDisplay:10.37,2013-03-15 09:00:00,
2013-03-15 05:05:00,38.8,36.4,30.15,West,271,0.0,0.0,91,0.00,CLR,,0.00,0.0,WeatherDisplay:10.37,2013-03-15 09:05:00,
2013-03-15 05:10:00,38.7,36.6,30.15,West,271,0.0,0.0,92,0.00,CLR,,0.00,0.0,WeatherDisplay:10.37,2013-03-15 09:10:00,
2013-03-15 05:15:00,38.7,36.6,30.16,West,271,0.0,0.0,92,0.00,CLR,,0.00,0.0,WeatherDisplay:10.37,2013-03-15 09:15:00,
2013-03-15 05:20:00,38.6,36.2,30.16,West,271,1.2,0.0,91,0.00,CLR,,0.00,0.0,WeatherDisplay:10.37,2013-03-15 09:20:00,
2013-03-15 05:25:00,38.5,36.1,30.16,West,271,1.2,1.2,91,0.00,CLR,,0.00,0.0,WeatherDisplay:10.37,2013-03-15 09:25:00,
2013-03-15 05:30:00,38.4,36.0,30.16,West,271,0.0,0.0,91,0.00,CLR,,0.00,0.0,WeatherDisplay:10.37,2013-03-15 09:30:00,
2013-03-15 05:35:00,38.4,36.3,30.16,West,271,0.0,0.0,92,0.00,CLR,,0.00,0.0,WeatherDisplay:10.37,2013-03-15 09:35:00,
2013-03-15 05:40:00,38.4,36.3,30.16,West,271,1.2,0.0,92,0.00,CLR,,0.00,0.0,WeatherDisplay:10.37,2013-03-15 09:40:00,
2013-03-15 05:45:00,38.3,36.2,30.17,West,271,0.0,0.0,92,0.00,CLR,,0.00,0.0,WeatherDisplay:10.37,2013-03-15 09:45:00,
2013-03-15 05:50:00,38.2,36.1,30.17,West,271,0.0,0.0,92,0.00,CLR,,0.00,0.0,WeatherDisplay:10.37,2013-03-15 09:50:00,
2013-03-15 05:55:00,38.1,36.0,30.17,West,271,0.0,0.0,92,0.00,CLR,,0.00,0.0,WeatherDisplay:10.37,2013-03-15 09:55:00,
2013-03-15 06:00:00,38.0,35.9,30.17,West,271,0.0,0.0,92,0.00,CLR,,0.00,0.0,WeatherDisplay:10.37,2013-03-15 10:00:00,
2013-03-15 06:05:00,38.0,36.2,30.17,West,271,0.0,0.0,93,0.00,CLR,,0.00,0.0,WeatherDisplay:10.37,2013-03-15 10:05:00,
2013-03-15 06:10:00,37.9,36.1,30.17,West,271,0.0,0.0,93,0.00,CLR,,0.00,0.0,WeatherDisplay:10.37,2013-03-15 10:10:00,
2013-03-15 06:15:00,37.9,36.1,30.17,West,272,0.0,0.0,93,0.00,CLR,,0.00,0.0,WeatherDisplay:10.37,2013-03-15 10:15:00,
2013-03-15 06:20:00,37.9,35.8,30.17,West,271,0.0,0.0,92,0.00,CLR,,0.00,0.0,WeatherDisplay:10.37,2013-03-15 10:20:00,
2013-03-15 06:25:00,37.9,35.8,30.17,West,271,0.0,0.0,92,0.00,CLR,,0.00,0.0,WeatherDisplay:10.37,2013-03-15 10:25:00,
2013-03-15 06:30:00,37.8,35.7,30.17,West,271,0.0,0.0,92,0.00,CLR,,0.00,0.0,WeatherDisplay:10.37,2013-03-15 10:30:00,
2013-03-15 06:35:00,37.8,35.7,30.17,West,271,0.0,0.0,92,0.00,CLR,,0.00,0.0,WeatherDisplay:10.37,2013-03-15 10:35:00,
2013-03-15 06:40:00,37.7,35.3,30.18,West,271,0.0,0.0,91,0.00,CLR,,0.00,0.0,WeatherDisplay:10.37,2013-03-15 10:40:00,
2013-03-15 06:45:00,37.5,35.1,30.18,West,271,1.2,1.2,91,0.00,CLR,,0.00,0.0,WeatherDisplay:10.37,2013-03-15 10:45:00,
2013-03-15 06:50:00,37.3,34.9,30.18,West,271,0.0,0.0,91,0.00,CLR,,0.00,0.0,WeatherDisplay:10.37,2013-03-15 10:50:00,
2013-03-15 06:55:00,37.2,34.8,30.18,West,271,1.2,0.0,91,0.00,CLR,,0.00,0.0,WeatherDisplay:10.37,2013-03-15 10:55:00,
2013-03-15 07:00:00,37.1,34.7,30.18,West,271,0.0,0.0,91,0.00,CLR,,0.00,0.0,WeatherDisplay:10.37,2013-03-15 11:00:00,
2013-03-15 07:05:00,36.9,34.8,30.18,West,271,0.0,0.0,92,0.00,CLR,,0.00,0.0,WeatherDisplay:10.37,2013-03-15 11:05:00,
2013-03-15 07:10:00,36.8,34.7,30.18,West,271,0.0,0.0,92,0.00,CLR,,0.00,0.0,WeatherDisplay:10.37,2013-03-15 11:10:00,
2013-03-15 07:15:00,36.7,34.6,30.18,West,271,1.2,0.0,92,0.00,CLR,,0.00,0.0,WeatherDisplay:10.37,2013-03-15 11:15:00,
2013-03-15 07:20:00,36.6,34.2,30.19,West,271,0.0,0.0,91,0.00,CLR,,0.00,0.0,WeatherDisplay:10.37,2013-03-15 11:20:00,
2013-03-15 07:25:00,36.4,34.0,30.19,West,270,0.0,0.0,91,0.00,CLR,,0.00,0.0,WeatherDisplay:10.37,2013-03-15 11:25:00,
2013-03-15 07:30:00,36.5,33.8,30.19,West,271,0.0,0.1,90,0.00,CLR,,0.00,0.0,WeatherDisplay:10.37,2013-03-15 11:30:00,
2013-03-15 07:35:00,36.5,33.8,30.19,West,272,0.0,0.0,90,0.00,CLR,,0.00,0.0,WeatherDisplay:10.37,2013-03-15 11:35:00,
2013-03-15 07:40:00,36.4,33.7,30.19,West,270,0.0,0.0,90,0.00,CLR,,0.00,0.0,WeatherDisplay:10.37,2013-03-15 11:40:00,
2013-03-15 07:45:00,36.4,33.7,30.19,West,272,0.0,0.0,90,0.00,CLR,,0.00,0.0,WeatherDisplay:10.37,2013-03-15 11:45:00,
2013-03-15 07:50:00,36.4,33.7,30.19,West,270,0.0,0.0,90,0.00,CLR,,0.00,0.0,WeatherDisplay:10.37,2013-03-15 11:50:00,
2013-03-15 07:55:00,36.4,33.5,30.19,West,270,0.0,0.0,89,0.00,CLR,,0.00,0.0,WeatherDisplay:10.37,2013-03-15 11:55:00,
2013-03-15 08:00:00,36.4,33.2,30.19,West,271,1.2,1.2,88,0.00,CLR,,0.00,0.0,WeatherDisplay:10.37,2013-03-15 12:00:00,
2013-03-15 08:05:00,36.4,33.5,30.20,West,272,1.2,1.2,89,0.00,CLR,,0.00,0.0,WeatherDisplay:10.37,2013-03-15 12:05:00,
2013-03-15 08:10:00,36.5,33.6,30.20,West,271,1.2,1.2,89,0.00,CLR,,0.00,0.0,WeatherDisplay:10.37,2013-03-15 12:10:00,
2013-03-15 08:15:00,36.6,33.7,30.20,West,272,3.5,3.5,89,0.00,CLR,,0.00,0.0,WeatherDisplay:10.37,2013-03-15 12:15:00,
2013-03-15 08:20:00,36.8,33.6,30.20,West,271,0.0,0.0,88,0.00,CLR,,0.00,0.0,WeatherDisplay:10.37,2013-03-15 12:20:00,
2013-03-15 08:25:00,37.3,33.8,30.20,West,272,2.3,2.3,87,0.00,CLR,,0.00,0.0,WeatherDisplay:10.37,2013-03-15 12:25:00,
2013-03-15 08:30:00,37.6,33.8,30.20,West,268,1.2,1.5,86,0.00,CLR,,0.00,0.0,WeatherDisplay:10.37,2013-03-15 12:30:00,
2013-03-15 08:35:00,38.3,34.2,30.20,West,269,1.2,1.2,85,0.00,CLR,,0.00,0.0,WeatherDisplay:10.37,2013-03-15 12:35:00,
2013-03-15 08:40:00,39.0,34.0,30.21,West,281,3.5,3.5,82,0.00,CLR,,0.00,0.0,WeatherDisplay:10.37,2013-03-15 12:40:00,
2013-03-15 08:45:00,39.7,34.3,30.21,NW,312,2.3,2.3,81,0.00,CLR,,0.00,0.0,WeatherDisplay:10.37,2013-03-15 12:45:00,
2013-03-15 08:50:00,40.2,34.5,30.21,WNW,287,2.3,2.3,80,0.00,CLR,,0.00,0.0,WeatherDisplay:10.37,2013-03-15 12:50:00,
2013-03-15 08:55:00,40.8,34.5,30.21,West,273,1.2,1.2,78,0.00,CLR,,0.00,0.0,WeatherDisplay:10.37,2013-03-15 12:55:00,
2013-03-15 09:00:00,41.5,35.5,30.21,West,271,2.3,2.3,79,0.00,CLR,,0.00,0.0,WeatherDisplay:10.37,2013-03-15 13:00:00,
2013-03-15 09:05:00,42.6,35.6,30.21,WNW,287,2.3,2.3,76,0.00,CLR,,0.00,0.0,WeatherDisplay:10.37,2013-03-15 13:05:00,
2013-03-15 09:10:00,43.6,36.2,30.21,WNW,283,3.5,3.5,75,0.00,CLR,,0.00,0.0,WeatherDisplay:10.37,2013-03-15 13:10:00,
2013-03-15 09:15:00,44.7,36.2,30.21,NNE,20,3.5,3.5,72,0.00,CLR,,0.00,0.0,WeatherDisplay:10.37,2013-03-15 13:15:00,
2013-03-15 09:20:00,45.7,36.5,30.20,NW,318,2.3,2.3,70,0.00,CLR,,0.00,0.0,WeatherDisplay:10.37,2013-03-15 13:20:00,
2013-03-15 09:25:00,46.4,35.3,30.21,NNE,25,1.2,1.2,65,0.00,CLR,,0.00,0.0,WeatherDisplay:10.37,2013-03-15 13:25:00,
2013-03-15 09:30:00,47.0,35.8,30.21,West,274,3.5,3.5,65,0.00,CLR,,0.00,0.0,WeatherDisplay:10.37,2013-03-15 13:30:00,
2013-03-15 09:35:00,47.4,35.8,30.21,WSW,256,4.6,4.6,64,0.00,CLR,,0.00,0.0,WeatherDisplay:10.37,2013-03-15 13:35:00,
2013-03-15 09:40:00,47.9,35.5,30.21,NE,42,3.5,3.5,62,0.00,CLR,,0.00,0.0,WeatherDisplay:10.37,2013-03-15 13:40:00,
2013-03-15 09:45:00,48.4,35.6,30.21,West,259,2.3,2.3,61,0.00,CLR,,0.00,0.0,WeatherDisplay:10.37,2013-03-15 13:45:00,
2013-03-15 09:50:00,48.6,35.7,30.20,West,260,1.2,1.2,61,0.00,CLR,,0.00,0.0,WeatherDisplay:10.37,2013-03-15 13:50:00,
2013-03-15 09:55:00,49.4,36.5,30.21,NNE,22,3.5,3.5,61,0.00,CLR,,0.00,0.0,WeatherDisplay:10.37,2013-03-15 13:55:00,
2013-03-15 10:00:00,50.1,35.9,30.21,NNE,12,3.5,3.5,58,0.00,CLR,,0.00,0.0,WeatherDisplay:10.37,2013-03-15 14:00:00,
2013-03-15 10:05:00,50.6,35.5,30.21,NNE,16,4.0,4.0,56,0.00,CLR,,0.00,0.0,WeatherDisplay:10.37,2013-03-15 14:05:00,
2013-03-15 10:10:00,51.1,34.1,30.21,NNW,340,3.5,3.5,52,0.00,CLR,,0.00,0.0,WeatherDisplay:10.37,2013-03-15 14:10:00,
2013-03-15 10:15:00,51.6,35.0,30.21,NNE,21,3.5,3.5,53,0.00,CLR,,0.00,0.0,WeatherDisplay:10.37,2013-03-15 14:15:00,
2013-03-15 10:20:00,52.1,35.9,30.21,NNE,17,3.5,3.5,54,0.00,CLR,,0.00,0.0,WeatherDisplay:10.37,2013-03-15 14:20:00,
2013-03-15 10:25:00,52.6,34.0,30.21,NE,55,2.3,2.3,49,0.00,CLR,,0.00,0.0,WeatherDisplay:10.37,2013-03-15 14:25:00,
2013-03-15 10:30:00,52.8,34.7,30.21,NNE,14,3.5,3.5,50,0.00,CLR,,0.00,0.0,WeatherDisplay:10.37,2013-03-15 14:30:00,
2013-03-15 10:35:00,53.4,33.7,30.21,North,8,3.5,3.5,47,0.00,CLR,,0.00,0.0,WeatherDisplay:10.37,2013-03-15 14:35:00,
2013-03-15 10:40:00,54.0,34.2,30.21,NNW,330,3.5,3.5,47,0.00,CLR,,0.00,0.0,WeatherDisplay:10.37,2013-03-15 14:40:00,
2013-03-15 10:45:00,54.4,34.6,30.20,SW,234,2.3,2.3,47,0.00,CLR,,0.00,0.0,WeatherDisplay:10.37,2013-03-15 14:45:00,
2013-03-15 10:50:00,54.7,35.4,30.20,SSE,166,3.5,3.5,48,0.00,CLR,,0.00,0.0,WeatherDisplay:10.37,2013-03-15 14:50:00,
2013-03-15 10:55:00,54.9,35.6,30.20,SSE,159,5.0,5.0,48,0.00,CLR,,0.00,0.0,WeatherDisplay:10.37,2013-03-15 14:55:00,
2013-03-15 11:00:00,55.0,35.1,30.19,SSW,204,2.3,2.3,47,0.00,CLR,,0.00,0.0,WeatherDisplay:10.37,2013-03-15 15:00:00,
2013-03-15 11:05:00,55.3,33.2,30.19,SSW,210,3.5,3.5,43,0.00,CLR,,0.00,0.0,WeatherDisplay:10.37,2013-03-15 15:05:00,
2013-03-15 11:10:00,55.9,29.3,30.19,NNW,327,2.3,2.3,36,0.00,CLR,,0.00,0.0,WeatherDisplay:10.37,2013-03-15 15:10:00,
2013-03-15 11:15:00,56.3,28.3,30.19,NE,44,3.5,3.5,34,0.00,CLR,,0.00,0.0,WeatherDisplay:10.37,2013-03-15 15:15:00,
2013-03-15 11:20:00,56.7,30.7,30.19,SSW,212,3.5,3.5,37,0.00,CLR,,0.00,0.0,WeatherDisplay:10.37,2013-03-15 15:20:00,
2013-03-15 11:25:00,57.1,31.0,30.19,SW,231,2.3,2.3,37,0.00,CLR,,0.00,0.0,WeatherDisplay:10.37,2013-03-15 15:25:00,
2013-03-15 11:30:00,57.3,30.5,30.18,SSW,197,2.3,2.3,36,0.00,CLR,,0.00,0.0,WeatherDisplay:10.37,2013-03-15 15:30:00,
2013-03-15 11:35:00,57.7,30.2,30.18,North,359,4.6,4.6,35,0.00,CLR,,0.00,0.0,WeatherDisplay:10.37,2013-03-15 15:35:00,
2013-03-15 11:40:00,58.1,29.8,30.18,NW,325,3.5,3.5,34,0.00,CLR,,0.00,0.0,WeatherDisplay:10.37,2013-03-15 15:40:00,
2013-03-15 11:45:00,58.3,32.1,30.18,NNE,23,5.8,5.8,37,0.00,CLR,,0.00,0.0,WeatherDisplay:10.37,2013-03-15 15:45:00,
2013-03-15 11:50:00,58.6,31.7,30.18,NNE,22,3.5,3.5,36,0.00,CLR,,0.00,0.0,WeatherDisplay:10.37,2013-03-15 15:50:00,
2013-03-15 11:55:00,59.1,31.4,30.18,SSW,198,3.5,3.5,35,0.00,CLR,,0.00,0.0,WeatherDisplay:10.37,2013-03-15 15:55:00,
2013-03-15 12:00:00,59.3,30.2,30.18,ENE,76,2.3,2.3,33,0.00,CLR,,0.00,0.0,WeatherDisplay:10.37,2013-03-15 16:00:00,
2013-03-15 12:05:00,59.6,31.9,30.18,North,354,3.5,0.0,35,0.00,OVC,,0.00,0.0,WeatherDisplay:10.37,2013-03-15 16:05:00,
2013-03-15 12:10:00,59.9,31.4,30.18,NNE,12,4.6,4.6,34,0.00,CLR,,0.00,0.0,WeatherDisplay:10.37,2013-03-15 16:10:00,
2013-03-15 12:15:00,59.9,28.4,30.17,North,359,6.0,6.0,30,0.00,CLR,,0.00,0.0,WeatherDisplay:10.37,2013-03-15 16:15:00,
2013-03-15 12:20:00,60.0,30.0,30.17,NE,44,1.2,1.2,32,0.00,CLR,,0.00,0.0,WeatherDisplay:10.37,2013-03-15 16:20:00,
2013-03-15 12:25:00,60.8,29.1,30.17,North,10,4.6,4.6,30,0.00,CLR,,0.00,0.0,WeatherDisplay:10.37,2013-03-15 16:25:00,
2013-03-15 12:30:00,61.0,30.1,30.17,NW,321,3.5,3.5,31,0.00,CLR,,0.00,0.0,WeatherDisplay:10.37,2013-03-15 16:30:00,
2013-03-15 12:35:00,61.2,30.3,30.17,NNE,26,2.3,2.3,31,0.00,CLR,,0.00,0.0,WeatherDisplay:10.37,2013-03-15 16:35:00,
2013-03-15 12:40:00,61.4,29.7,30.17,West,278,4.6,4.6,30,0.00,CLR,,0.00,0.0,WeatherDisplay:10.37,2013-03-15 16:40:00,
2013-03-15 12:45:00,61.9,30.9,30.17,North,354,2.3,2.3,31,0.00,CLR,,0.00,0.0,WeatherDisplay:10.37,2013-03-15 16:45:00,
2013-03-15 12:50:00,62.2,32.7,30.17,NE,44,3.5,3.5,33,0.00,CLR,,0.00,0.0,WeatherDisplay:10.37,2013-03-15 16:50:00,
2013-03-15 12:55:00,62.7,31.6,30.16,WNW,283,2.3,2.3,31,0.00,CLR,,0.00,0.0,WeatherDisplay:10.37,2013-03-15 16:55:00,
2013-03-15 13:00:00,63.3,31.3,30.16,NW,316,3.5,3.5,30,0.00,CLR,,0.00,0.0,WeatherDisplay:10.37,2013-03-15 17:00:00,
2013-03-15 13:05:00,63.4,30.6,30.16,NNE,31,4.6,4.6,29,0.00,CLR,,0.00,0.0,WeatherDisplay:10.37,2013-03-15 17:05:00,
2013-03-15 13:10:00,62.9,31.0,30.16,WSW,247,3.5,3.5,30,0.00,CLR,,0.00,0.0,WeatherDisplay:10.37,2013-03-15 17:10:00,
2013-03-15 13:15:00,63.2,34.3,30.16,West,276,6.9,6.9,34,0.00,CLR,,0.00,0.0,WeatherDisplay:10.37,2013-03-15 17:15:00,
2013-03-15 13:20:00,63.9,35.7,30.15,South,170,3.5,3.5,35,0.00,CLR,,0.00,0.0,WeatherDisplay:10.37,2013-03-15 17:20:00,
2013-03-15 13:25:00,64.4,36.1,30.15,SW,222,3.5,3.5,35,0.00,CLR,,0.00,0.0,WeatherDisplay:10.37,2013-03-15 17:25:00,
2013-03-15 13:30:00,64.7,37.1,30.15,WSW,258,4.6,4.6,36,0.00,CLR,,0.00,0.0,WeatherDisplay:10.37,2013-03-15 17:30:00,
2013-03-15 13:35:00,64.9,35.8,30.15,West,273,3.5,3.5,34,0.00,CLR,,0.00,0.0,WeatherDisplay:10.37,2013-03-15 17:35:00,
2013-03-15 13:40:00,65.0,36.7,30.14,SSE,166,3.5,3.5,35,0.00,CLR,,0.00,0.0,WeatherDisplay:10.37,2013-03-15 17:40:00,
2013-03-15 13:45:00,65.0,36.7,30.14,SW,218,3.5,3.5,35,0.00,CLR,,0.00,0.0,WeatherDisplay:10.37,2013-03-15 17:45:00,
2013-03-15 13:50:00,65.4,37.7,30.14,SW,235,6.9,6.9,36,0.00,CLR,,0.00,0.0,WeatherDisplay:10.37,2013-03-15 17:50:00,
2013-03-15 13:55:00,65.7,37.3,30.14,WSW,258,3.5,3.5,35,0.00,CLR,,0.00,0.0,WeatherDisplay:10.37,2013-03-15 17:55:00,
2013-03-15 14:00:00,66.1,38.4,30.13,WSW,241,3.5,3.5,36,0.00,CLR,,0.00,0.0,WeatherDisplay:10.37,2013-03-15 18:00:00,
2013-03-15 14:05:00,66.2,37.7,30.13,East,81,1.2,1.2,35,0.00,CLR,,0.00,0.0,WeatherDisplay:10.37,2013-03-15 18:05:00,
2013-03-15 14:10:00,66.3,37.8,30.13,SSE,168,4.0,4.0,35,0.00,CLR,,0.00,0.0,WeatherDisplay:10.37,2013-03-15 18:10:00,
2013-03-15 14:15:00,66.7,39.6,30.12,SW,217,3.5,3.5,37,0.00,CLR,,0.00,0.0,WeatherDisplay:10.37,2013-03-15 18:15:00,
2013-03-15 14:20:00,66.7,40.9,30.12,SSE,150,4.6,4.6,39,0.00,CLR,,0.00,0.0,WeatherDisplay:10.37,2013-03-15 18:20:00,
2013-03-15 14:25:00,66.6,41.5,30.12,South,182,2.3,2.3,40,0.00,CLR,,0.00,0.0,WeatherDisplay:10.37,2013-03-15 18:25:00,
2013-03-15 14:30:00,66.6,40.2,30.12,South,178,3.5,3.5,38,0.00,CLR,,0.00,0.0,WeatherDisplay:10.37,2013-03-15 18:30:00,
2013-03-15 14:35:00,66.6,39.5,30.12,SSE,150,6.9,6.9,37,0.00,CLR,,0.00,0.0,WeatherDisplay:10.37,2013-03-15 18:35:00,
2013-03-15 14:40:00,66.6,38.8,30.11,South,181,9.2,9.2,36,0.00,CLR,,0.00,0.0,WeatherDisplay:10.37,2013-03-15 18:40:00,
2013-03-15 14:45:00,66.5,39.4,30.11,SSW,203,4.6,4.6,37,0.00,CLR,,0.00,0.0,WeatherDisplay:10.37,2013-03-15 18:45:00,
2013-03-15 14:50:00,66.5,38.7,30.11,SSW,195,4.6,4.6,36,0.00,CLR,,0.00,0.0,WeatherDisplay:10.37,2013-03-15 18:50:00,
2013-03-15 14:55:00,66.7,39.6,30.10,SE,125,4.6,4.6,37,0.00,CLR,,0.00,0.0,WeatherDisplay:10.37,2013-03-15 18:55:00,
2013-03-15 15:00:00,67.2,37.9,30.09,SSE,147,6.9,6.9,34,0.00,CLR,,0.00,0.0,WeatherDisplay:10.37,2013-03-15 19:00:00,
2013-03-15 15:05:00,67.7,39.8,30.09,ESE,117,6.9,6.9,36,0.00,CLR,,0.00,0.0,WeatherDisplay:10.37,2013-03-15 19:05:00,
2013-03-15 15:10:00,67.6,40.4,30.09,SSE,148,4.6,4.8,37,0.00,CLR,,0.00,0.0,WeatherDisplay:10.37,2013-03-15 19:10:00,
2013-03-15 15:15:00,67.7,39.0,30.08,South,171,4.6,4.6,35,0.00,CLR,,0.00,0.0,WeatherDisplay:10.37,2013-03-15 19:15:00,
2013-03-15 15:20:00,68.2,36.4,30.08,SSW,206,3.5,3.5,31,0.00,FEW,,0.00,0.0,WeatherDisplay:10.37,2013-03-15 19:20:00,
2013-03-15 15:25:00,68.7,36.0,30.08,WSW,240,3.5,3.5,30,0.00,FEW,,0.00,0.0,WeatherDisplay:10.37,2013-03-15 19:25:00,
2013-03-15 15:30:00,68.8,36.1,30.07,SSW,197,3.5,3.5,30,0.00,FEW,,0.00,0.0,WeatherDisplay:10.37,2013-03-15 19:30:00,
2013-03-15 15:35:00,68.8,36.9,30.07,West,276,4.6,4.6,31,0.00,FEW,,0.00,0.0,WeatherDisplay:10.37,2013-03-15 19:35:00,
2013-03-15 15:40:00,68.7,36.0,30.07,NNE,21,6.9,6.9,30,0.00,FEW,,0.00,0.0,WeatherDisplay:10.37,2013-03-15 19:40:00,
2013-03-15 15:45:00,68.1,35.5,30.07,North,4,3.5,3.5,30,0.00,FEW,,0.00,0.0,WeatherDisplay:10.37,2013-03-15 19:45:00,
2013-03-15 15:50:00,68.1,37.1,30.07,West,264,3.5,3.5,32,0.00,FEW,,0.00,0.0,WeatherDisplay:10.37,2013-03-15 19:50:00,
2013-03-15 15:55:00,68.1,36.3,30.06,West,268,3.5,3.5,31,0.00,FEW,,0.00,0.0,WeatherDisplay:10.37,2013-03-15 19:55:00,
2013-03-15 16:00:00,67.6,38.2,30.06,West,274,4.6,4.6,34,0.00,FEW,,0.00,0.0,WeatherDisplay:10.37,2013-03-15 20:00:00,
2013-03-15 16:05:00,67.4,38.0,30.06,WSW,258,4.6,4.6,34,0.00,FEW,,0.00,0.0,WeatherDisplay:10.37,2013-03-15 20:05:00,
2013-03-15 16:10:00,67.1,37.8,30.06,SSW,206,2.3,2.4,34,0.00,FEW,,0.00,0.0,WeatherDisplay:10.37,2013-03-15 20:10:00,
2013-03-15 16:15:00,67.1,38.5,30.06,SSW,213,3.5,3.5,35,0.00,FEW,,0.00,0.0,WeatherDisplay:10.37,2013-03-15 20:15:00,
2013-03-15 16:20:00,67.2,38.6,30.05,WSW,240,3.5,3.5,35,0.00,FEW,,0.00,0.0,WeatherDisplay:10.37,2013-03-15 20:20:00,
2013-03-15 16:25:00,67.2,38.6,30.05,NE,44,3.5,3.5,35,0.00,FEW,,0.00,0.0,WeatherDisplay:10.37,2013-03-15 20:25:00,
2013-03-15 16:30:00,67.4,37.3,30.05,West,274,3.5,3.5,33,0.00,FEW,,0.00,0.0,WeatherDisplay:10.37,2013-03-15 20:30:00,
2013-03-15 16:35:00,67.5,41.0,30.05,South,172,8.1,8.1,38,0.00,FEW,,0.00,0.0,WeatherDisplay:10.37,2013-03-15 20:35:00,
2013-03-15 16:40:00,67.0,41.9,30.05,WSW,237,11.5,11.5,40,0.00,FEW,,0.00,0.0,WeatherDisplay:10.37,2013-03-15 20:40:00,
2013-03-15 16:45:00,66.5,42.1,30.05,South,177,6.9,6.9,41,0.00,FEW,,0.00,0.0,WeatherDisplay:10.37,2013-03-15 20:45:00,
2013-03-15 16:50:00,65.9,42.1,30.04,SSW,212,8.1,8.1,42,0.00,FEW,,0.00,0.0,WeatherDisplay:10.37,2013-03-15 20:50:00,
2013-03-15 16:55:00,65.2,41.5,30.04,SSE,164,4.6,4.6,42,0.00,FEW,,0.00,0.0,WeatherDisplay:10.37,2013-03-15 20:55:00,
2013-03-15 17:00:00,64.9,42.5,30.03,SSW,205,3.5,3.5,44,0.00,FEW,,0.00,0.0,WeatherDisplay:10.37,2013-03-15 21:00:00,
2013-03-15 17:05:00,64.9,41.9,30.04,South,177,9.2,9.2,43,0.00,CLR,,0.00,0.0,WeatherDisplay:10.37,2013-03-15 21:05:00,
2013-03-15 17:10:00,64.6,42.8,30.04,West,264,4.6,4.6,45,0.00,CLR,,0.00,0.0,WeatherDisplay:10.37,2013-03-15 21:10:00,
2013-03-15 17:15:00,64.5,43.3,30.04,SSW,209,3.5,3.5,46,0.00,CLR,,0.00,0.0,WeatherDisplay:10.37,2013-03-15 21:15:00,
2013-03-15 17:20:00,64.2,43.0,30.04,SW,217,6.9,6.9,46,0.00,CLR,,0.00,0.0,WeatherDisplay:10.37,2013-03-15 21:20:00,
2013-03-15 17:25:00,63.9,42.1,30.04,South,190,3.5,3.5,45,0.00,CLR,,0.00,0.0,WeatherDisplay:10.37,2013-03-15 21:25:00,
2013-03-15 17:30:00,63.9,42.1,30.04,SW,214,3.5,3.5,45,0.00,CLR,,0.00,0.0,WeatherDisplay:10.37,2013-03-15 21:30:00,
2013-03-15 17:35:00,63.8,42.6,30.03,SW,225,3.5,3.5,46,0.00,CLR,,0.00,0.0,WeatherDisplay:10.37,2013-03-15 21:35:00,
2013-03-15 17:40:00,63.8,42.6,30.04,SSE,158,8.0,8.0,46,0.00,CLR,,0.00,0.0,WeatherDisplay:10.37,2013-03-15 21:40:00,
2013-03-15 17:45:00,63.6,43.0,30.03,SW,214,6.9,6.9,47,0.00,CLR,,0.00,0.0,WeatherDisplay:10.37,2013-03-15 21:45:00,
2013-03-15 17:50:00,63.6,43.0,30.03,SW,223,6.9,6.9,47,0.00,CLR,,0.00,0.0,WeatherDisplay:10.37,2013-03-15 21:50:00,
2013-03-15 17:55:00,63.3,42.2,30.04,WSW,245,5.8,5.8,46,0.00,CLR,,0.00,0.0,WeatherDisplay:10.37,2013-03-15 21:55:00,
2013-03-15 18:00:00,62.9,41.8,30.04,WSW,251,3.5,3.5,46,0.00,CLR,,0.00,0.0,WeatherDisplay:10.37,2013-03-15 22:00:00,
2013-03-15 18:05:00,62.5,42.0,30.04,SW,226,5.8,5.8,47,0.00,CLR,,0.00,0.0,WeatherDisplay:10.37,2013-03-15 22:05:00,
2013-03-15 18:10:00,62.1,41.6,30.03,SW,226,4.6,4.6,47,0.00,CLR,,0.00,0.0,WeatherDisplay:10.37,2013-03-15 22:10:00,
2013-03-15 18:15:00,61.8,42.4,30.03,SSE,164,3.5,3.5,49,0.00,CLR,,0.00,0.0,WeatherDisplay:10.37,2013-03-15 22:15:00,
2013-03-15 18:20:00,61.4,41.5,30.03,SSW,201,6.0,6.0,48,0.00,FEW,,0.00,0.0,WeatherDisplay:10.37,2013-03-15 22:20:00,
2013-03-15 18:25:00,60.9,41.1,30.03,SW,219,3.5,3.5,48,0.00,FEW,,0.00,0.0,WeatherDisplay:10.37,2013-03-15 22:25:00,
2013-03-15 18:30:00,60.4,41.1,30.03,SW,222,5.8,5.8,49,0.00,FEW,,0.00,0.0,WeatherDisplay:10.37,2013-03-15 22:30:00,
2013-03-15 18:35:00,59.8,40.6,30.04,SSW,196,3.5,3.5,49,0.00,FEW,,0.00,0.0,WeatherDisplay:10.37,2013-03-15 22:35:00,
2013-03-15 18:40:00,59.5,40.8,30.04,SE,134,3.5,3.5,50,0.00,FEW,,0.00,0.0,WeatherDisplay:10.37,2013-03-15 22:40:00,
2013-03-15 18:45:00,59.1,40.5,30.03,SW,225,3.5,3.5,50,0.00,FEW,,0.00,0.0,WeatherDisplay:10.37,2013-03-15 22:45:00,
2013-03-15 18:50:00,58.7,40.6,30.04,SSW,207,3.5,3.5,51,0.00,FEW,,0.00,0.0,WeatherDisplay:10.37,2013-03-15 22:50:00,
2013-03-15 18:55:00,58.3,40.7,30.04,SW,233,5.8,5.8,52,0.00,FEW,,0.00,0.0,WeatherDisplay:10.37,2013-03-15 22:55:00,
2013-03-15 19:00:00,58.0,41.0,30.04,SSW,205,3.5,3.5,53,0.00,FEW,,0.00,0.0,WeatherDisplay:10.37,2013-03-15 23:00:00,
2013-03-15 19:05:00,57.5,42.8,30.04,SSE,167,3.5,3.5,58,0.00,FEW,,0.00,0.0,WeatherDisplay:10.37,2013-03-15 23:05:00,
2013-03-15 19:10:00,57.1,43.8,30.04,SW,235,5.8,5.8,61,0.00,FEW,,0.00,0.0,WeatherDisplay:10.37,2013-03-15 23:10:00,
2013-03-15 19:15:00,56.7,44.2,30.04,SW,230,4.6,4.6,63,0.00,FEW,,0.00,0.0,WeatherDisplay:10.37,2013-03-15 23:15:00,
2013-03-15 19:20:00,56.4,44.4,30.04,SW,222,3.5,3.5,64,0.00,FEW,,0.00,0.0,WeatherDisplay:10.37,2013-03-15 23:20:00,
2013-03-15 19:25:00,56.0,44.4,30.04,SSW,199,3.5,3.5,65,0.00,FEW,,0.00,0.0,WeatherDisplay:10.37,2013-03-15 23:25:00,
2013-03-15 19:30:00,55.8,44.2,30.04,SW,216,1.2,1.2,65,0.00,FEW,,0.00,0.0,WeatherDisplay:10.37,2013-03-15 23:30:00,
2013-03-15 19:35:00,55.5,44.3,30.04,South,191,3.5,3.5,66,0.00,FEW,,0.00,0.0,WeatherDisplay:10.37,2013-03-15 23:35:00,
2013-03-15 19:40:00,55.2,43.6,30.04,SW,225,2.3,2.3,65,0.00,FEW,,0.00,0.0,WeatherDisplay:10.37,2013-03-15 23:40:00,
2013-03-15 19:45:00,55.0,44.2,30.04,WSW,245,3.5,3.5,67,0.00,FEW,,0.00,0.0,WeatherDisplay:10.37,2013-03-15 23:45:00,
2013-03-15 19:50:00,54.8,44.0,30.04,WSW,237,3.5,3.5,67,0.00,FEW,,0.00,0.0,WeatherDisplay:10.37,2013-03-15 23:50:00,
2013-03-15 19:55:00,54.6,44.6,30.04,SSW,194,3.5,3.5,69,0.00,FEW,,0.00,0.0,WeatherDisplay:10.37,2013-03-15 23:55:00,
2013-03-15 20:00:00,54.4,44.8,30.04,South,185,2.3,2.3,70,0.00,FEW,,0.00,0.0,WeatherDisplay:10.37,2013-03-16 00:00:00,
2013-03-15 20:05:00,54.2,45.0,30.04,South,181,3.5,3.5,71,0.00,FEW,,0.00,0.0,WeatherDisplay:10.37,2013-03-16 00:05:00,
2013-03-15 20:10:00,54.0,44.8,30.04,South,185,2.3,2.3,71,0.00,FEW,,0.00,0.0,WeatherDisplay:10.37,2013-03-16 00:10:00,
2013-03-15 20:15:00,53.7,44.5,30.04,SSW,196,3.5,3.5,71,0.00,FEW,,0.00,0.0,WeatherDisplay:10.37,2013-03-16 00:15:00,
2013-03-15 20:20:00,53.6,44.4,30.04,SSE,168,1.2,1.2,71,0.00,FEW,,0.00,0.0,WeatherDisplay:10.37,2013-03-16 00:20:00,
2013-03-15 20:25:00,53.4,44.2,30.04,South,189,2.3,2.3,71,0.00,FEW,,0.00,0.0,WeatherDisplay:10.37,2013-03-16 00:25:00,
2013-03-15 20:30:00,53.3,44.5,30.04,South,181,3.5,3.5,72,0.00,FEW,,0.00,0.0,WeatherDisplay:10.37,2013-03-16 00:30:00,
2013-03-15 20:35:00,53.2,44.8,30.04,SSW,197,2.3,2.3,73,0.00,FEW,,0.00,0.0,WeatherDisplay:10.37,2013-03-16 00:35:00,
2013-03-15 20:40:00,53.2,44.8,30.04,South,183,3.5,3.5,73,0.00,FEW,,0.00,0.0,WeatherDisplay:10.37,2013-03-16 00:40:00,
2013-03-15 20:45:00,53.2,45.1,30.04,SSE,148,2.3,2.3,74,0.00,FEW,,0.00,0.0,WeatherDisplay:10.37,2013-03-16 00:45:00,
2013-03-15 20:50:00,53.2,45.5,30.04,SSW,197,2.3,2.3,75,0.00,FEW,,0.00,0.0,WeatherDisplay:10.37,2013-03-16 00:50:00,
2013-03-15 20:55:00,53.1,45.4,30.04,SSW,210,3.5,3.5,75,0.00,FEW,,0.00,0.0,WeatherDisplay:10.37,2013-03-16 00:55:00,
2013-03-15 21:00:00,53.2,45.8,30.05,SW,222,3.5,3.5,76,0.00,FEW,,0.00,0.0,WeatherDisplay:10.37,2013-03-16 01:00:00,
2013-03-15 21:05:00,53.3,45.9,30.05,SW,216,3.5,3.5,76,0.00,CLR,,0.00,0.0,WeatherDisplay:10.37,2013-03-16 01:05:00,
2013-03-15 21:10:00,53.3,46.3,30.05,South,186,3.5,3.5,77,0.00,CLR,,0.00,0.0,WeatherDisplay:10.37,2013-03-16 01:10:00,
2013-03-15 21:15:00,53.4,46.7,30.04,SW,218,1.2,1.2,78,0.00,CLR,,0.00,0.0,WeatherDisplay:10.37,2013-03-16 01:15:00,
2013-03-15 21:20:00,53.4,46.7,30.05,SSW,204,2.3,2.3,78,0.00,CLR,,0.00,0.0,WeatherDisplay:10.37,2013-03-16 01:20:00,
2013-03-15 21:25:00,53.4,46.7,30.04,East,87,3.5,3.5,78,0.00,CLR,,0.00,0.0,WeatherDisplay:10.37,2013-03-16 01:25:00,
2013-03-15 21:30:00,53.5,47.1,30.04,SSW,210,3.5,3.5,79,0.00,CLR,,0.00,0.0,WeatherDisplay:10.37,2013-03-16 01:30:00,
2013-03-15 21:35:00,53.6,47.2,30.04,SW,221,2.3,2.3,79,0.00,CLR,,0.00,0.0,WeatherDisplay:10.37,2013-03-16 01:35:00,
2013-03-15 21:40:00,53.8,47.4,30.04,SW,232,3.5,3.5,79,0.00,CLR,,0.00,0.0,WeatherDisplay:10.37,2013-03-16 01:40:00,
2013-03-15 21:45:00,54.0,47.6,30.05,WSW,237,3.5,3.5,79,0.00,CLR,,0.00,0.0,WeatherDisplay:10.37,2013-03-16 01:45:00,
2013-03-15 21:50:00,54.1,47.4,30.04,SSW,209,4.6,4.6,78,0.00,CLR,,0.00,0.0,WeatherDisplay:10.37,2013-03-16 01:50:00,
2013-03-15 21:55:00,54.2,47.5,30.04,WSW,242,3.5,3.5,78,0.00,CLR,,0.00,0.0,WeatherDisplay:10.37,2013-03-16 01:55:00,
2013-03-15 22:00:00,54.2,47.1,30.04,SW,218,2.3,2.3,77,0.00,CLR,,0.00,0.0,WeatherDisplay:10.37,2013-03-16 02:00:00,
2013-03-15 22:05:00,54.4,47.0,30.04,SW,228,3.5,3.5,76,0.00,FEW,,0.00,0.0,WeatherDisplay:10.37,2013-03-16 02:05:00,
2013-03-15 22:10:00,54.5,47.1,30.04,SSW,199,4.6,4.6,76,0.00,FEW,,0.00,0.0,WeatherDisplay:10.37,2013-03-16 02:10:00,
2013-03-15 22:15:00,54.6,46.8,30.04,SW,222,3.5,3.5,75,0.00,FEW,,0.00,0.0,WeatherDisplay:10.37,2013-03-16 02:15:00,
2013-03-15 22:20:00,54.8,47.0,30.04,SSW,204,4.0,4.0,75,0.00,FEW,,0.00,0.0,WeatherDisplay:10.37,2013-03-16 02:20:00,
2013-03-15 22:25:00,54.9,47.1,30.04,SW,224,3.5,3.5,75,0.00,FEW,,0.00,0.0,WeatherDisplay:10.37,2013-03-16 02:25:00,
2013-03-15 22:30:00,55.1,47.3,30.04,SW,219,4.6,4.6,75,0.00,FEW,,0.00,0.0,WeatherDisplay:10.37,2013-03-16 02:30:00,
2013-03-15 22:35:00,55.3,47.5,30.04,SW,226,9.2,9.2,75,0.00,FEW,,0.00,0.0,WeatherDisplay:10.37,2013-03-16 02:35:00,
2013-03-15 22:40:00,55.4,47.2,30.04,WSW,243,4.6,4.6,74,0.00,FEW,,0.00,0.0,WeatherDisplay:10.37,2013-03-16 02:40:00,
2013-03-15 22:45:00,55.5,47.3,30.04,SW,217,3.5,3.5,74,0.00,FEW,,0.00,0.0,WeatherDisplay:10.37,2013-03-16 02:45:00,
2013-03-15 22:50:00,55.8,47.3,30.04,SW,223,3.5,3.5,73,0.00,FEW,,0.00,0.0,WeatherDisplay:10.37,2013-03-16 02:50:00,
2013-03-15 22:55:00,55.9,47.4,30.04,SSW,208,5.8,5.8,73,0.00,FEW,,0.00,0.0,WeatherDisplay:10.37,2013-03-16 02:55:00,
2013-03-15 23:00:00,56.0,47.5,30.04,South,177,5.8,5.8,73,0.00,FEW,,0.00,0.0,WeatherDisplay:10.37,2013-03-16 03:00:00,
2013-03-15 23:05:00,56.2,48.0,30.04,WSW,240,4.6,4.6,74,0.00,CLR,,0.00,0.0,WeatherDisplay:10.37,2013-03-16 03:05:00,
2013-03-15 23:10:00,56.2,48.0,30.04,SW,219,5.8,5.8,74,0.00,CLR,,0.00,0.0,WeatherDisplay:10.37,2013-03-16 03:10:00,
2013-03-15 23:15:00,56.2,48.4,30.04,WSW,251,3.5,3.5,75,0.00,CLR,,0.00,0.0,WeatherDisplay:10.37,2013-03-16 03:15:00,
2013-03-15 23:20:00,56.2,48.4,30.04,SW,216,4.6,4.6,75,0.00,CLR,,0.00,0.0,WeatherDisplay:10.37,2013-03-16 03:20:00,
2013-03-15 23:25:00,56.3,48.5,30.04,SW,218,4.6,4.6,75,0.00,CLR,,0.00,0.0,WeatherDisplay:10.37,2013-03-16 03:25:00,
2013-03-15 23:30:00,56.2,48.4,30.04,SSW,212,4.6,4.6,75,0.00,CLR,,0.00,0.0,WeatherDisplay:10.37,2013-03-16 03:30:00,
2013-03-15 23:35:00,56.2,48.4,30.04,SW,226,4.6,4.6,75,0.00,CLR,,0.00,0.0,WeatherDisplay:10.37,2013-03-16 03:35:00,
2013-03-15 23:40:00,56.3,48.5,30.04,WSW,241,8.0,8.0,75,0.00,CLR,,0.00,0.0,WeatherDisplay:10.37,2013-03-16 03:40:00,
2013-03-15 23:45:00,56.4,48.6,30.04,WSW,253,2.3,2.3,75,0.00,CLR,,0.00,0.0,WeatherDisplay:10.37,2013-03-16 03:45:00,
2013-03-15 23:50:00,56.3,48.5,30.04,SW,233,5.8,5.8,75,0.00,CLR,,0.00,0.0,WeatherDisplay:10.37,2013-03-16 03:50:00,
2013-03-15 23:55:00,56.3,48.5,30.04,SW,224,5.8,5.8,75,0.00,CLR,,0.00,0.0,WeatherDisplay:10.37,2013-03-16 03:55:00,